Regional Weather Roundup
Issued by NWS

Home | Current Version | Previous Version | Text Only | Print | Product List | Glossary Off
Versions: 1 2 3 4 5 6 7 8 9 10 11 12 13 14 15 16 17 18 19 20 21 22 23 24 25 26 27 28 29 30 31 32 33 34 35 36 37 38 39 40 41 42 43 44 45 46 47 48 49 50

000
ASUS43 KMKX 101900
RWRWI

WISCONSIN REGIONAL WEATHER ROUNDUP
NATIONAL WEATHER SERVICE MILWAUKEE/SULLIVAN WI
200 PM CDT THU JUL 10 2014

NOTE: "FAIR" INDICATES FEW OR NO CLOUDS BELOW 12,000 FEET WITH NO
SIGNIFICANT WEATHER AND/OR OBSTRUCTIONS TO VISIBILITY.

WIZ001-002-006>008-014>016-023>028-102000-
NORTHWEST WISCONSIN

CITY           SKY/WX    TMP DP  RH WIND       PRES   REMARKS
SUPERIOR ARPT  MOSUNNY   68  56  66 NE7       30.04S
ASHLAND        PTSUNNY   78  56  46 S10       30.06F
HAYWARD        MOSUNNY   78  50  37 W8        30.07F
SIREN          SUNNY     80  54  41 S8        30.04F HX  80
RICE LAKE      MOSUNNY   78  57  48 S6        30.08F
LADYSMITH      MOSUNNY   77  58  51 S12       30.11F
EAU CLAIRE     NOT AVBL
MENOMONIE      CLEAR     80  60  50 SE12      30.06F HX  81
NEW RICHMOND   MOSUNNY   79  58  49 S7        30.05F HX  80
OSCEOLA        MOSUNNY   80  59  48 S8        30.06F HX  81
$$

WIZ003>005-009-010-017-018-102000-
NORTH CENTRAL WISCONSIN

CITY           SKY/WX    TMP DP  RH WIND       PRES   REMARKS
WOODRUFF       MOSUNNY   77  54  45 S10G16    30.13S
RHINELANDER    MOSUNNY   73  53  49 VRB7      30.14F
EAGLE RIVER    PTSUNNY   70  50  49 W5        30.13F
LAND O LAKES   MOSUNNY   72  50  45 SW3       30.14F
PHILLIPS       MOSUNNY   74  54  49 S8G17     30.11F
TOMAHAWK       MOSUNNY   74  55  51 CALM      30.14S
MEDFORD        PTSUNNY   74  58  58 SE8       30.12F
MERRILL        CLOUDY    74  55  51 S8        30.13S
$$

WIZ029-030-035-036-043>047-102000-
CENTRAL WISCONSIN

CITY           SKY/WX    TMP DP  RH WIND       PRES   REMARKS
WAUSAU         PTSUNNY   76  54  46 S9        30.12S
MOSINEE        PTSUNNY   75  55  50 S9        30.14S
MARSHFIELD     MOSUNNY   76  59  55 S14       30.12F
STEVENS POINT  MOSUNNY   75  54  47 S7G17     30.14S
WAUPACA        PTSUNNY   79  54  41 SW6       30.14F
WAUTOMA        NOT AVBL
WISC RAPIDS    MOSUNNY   78  56  46 S12G20    30.13F
CAMP DOUGLAS   NOT AVBL
$$

WIZ011>013-019>022-031-037>040-048>050-102000-
NORTHEAST WISCONSIN

CITY           SKY/WX    TMP DP  RH WIND       PRES   REMARKS
ANTIGO         PTSUNNY   71  56  58 SE5       30.15F
STURGEON BAY   SUNNY     68  54  60 S10       30.19F
GREEN BAY      SUNNY     76  51  41 SE6       30.15F
MANITOWOC      NOT AVBL
APPLETON       NOT AVBL
CLINTONVILLE   MOSUNNY   73  52  46 S6        30.14F
OSHKOSH        MOSUNNY   76  55  48 S9        30.14F
$$

WIZ032>034-041-042-053>061-102000-
SOUTHWEST WISCONSIN

CITY           SKY/WX    TMP DP  RH WIND       PRES   REMARKS
LA CROSSE      MOSUNNY   80  63  55 S13       30.08F HX  81
SPARTA         PTSUNNY   78  61  54 S6        30.11S HX  80
VIROQUA        MOCLDY    78  62  58 S10       30.13F
BOSCOBEL       MOSUNNY   80  61  52 S8G17     30.12F HX  81
PRAIRIE DU CHI MOSUNNY   79  59  50 S7        30.11S HX  80
PLATTEVILLE    PTSUNNY   78  60  54 S8        30.15F
$$

WIZ056-057-062-063-064-067-068-102000-
SOUTH CENTRAL WISCONSIN

CITY           SKY/WX    TMP DP  RH WIND       PRES   REMARKS
BARABOO/DELLS  CLOUDY    77  57  49 SW7       30.14S
LONE ROCK      NOT AVBL
WATERTOWN      MOSUNNY   76  54  46 S5        30.16F
MADISON        MOSUNNY   79  56  45 S7        30.14F HX  80
MIDDLETON      MOCLDY    78  56  45 S8        30.15F
MONROE         MOSUNNY   77  57  50 SW7       30.16S
JANESVILLE     MOSUNNY   79  54  41 CALM      30.15F
$$

WIZ051-052-058>065-066-070>072-102000-
SOUTHEAST WISCONSIN

CITY           SKY/WX    TMP DP  RH WIND       PRES   REMARKS
MILWAUKEE      MOSUNNY   70  56  61 SE13      30.18F
WAUKESHA       PTSUNNY   72  52  49 SE3       30.18F
MILWAUKEE/TIMM SUNNY     72  54  53 SE10      30.18F
RACINE         SUNNY     69  56  62 SE10      30.20F
BURLINGTON     SUNNY     75  51  43 CALM      30.17F
KENOSHA        SUNNY     71  57  61 SE9       30.19F
FOND DU LAC    MOSUNNY   76  52  43 CALM      30.15F
SHEBOYGAN      SUNNY     70  55  59 S10       30.18F
WEST BEND      CLOUDY    70  55  60 E10       30.17F
JUNEAU         PTSUNNY   75  38  26 SW8       30.17F
$$

LSZ147-162-102000-
LAKE SUPERIOR

STATION/POSITION TIME  TEMP    WIND        PRES    WAVE
                       AIR SEA DIR/SP/G            HT/PER
                 (UTC) (F)     (DEG/KT/KT) (MB)    (FT/S)
W MID LAKE BUOY  1750   46 39  130/  6/  8 1019.3F   0
PORT WING        1800   63      30/ 11/ 14 1017.6F
SAXON HARBOR     1800           CALM  /  4 1018.6F
$$

LMZ867-665-643>646-102000-
LAKE MICHIGAN

STATION/POSITION TIME  TEMP    WIND        PRES    WAVE
                       AIR SEA DIR/SP/G            HT/PER
                 (UTC) (F)     (DEG/KT/KT) (MB)    (FT/S)
N MID LAKE BUOY  1750   57 56  200/  8/ 10 1022.1F   0
NORTHPORT PIER   1800   63     150/  9/ 14 1022.0S
KEWAUNEE LAKESHO 1800   55     170/  7/  9 1023.3S
SHEBOYGAN LAKESH 1800   59     140/ 11/ 12 1022.7F
PORT WASHINGTON  1800   63     130/  4/  5 1023.0F
MILWAUKEE LAKESH 1800   61     140/ 10/ 12   N/A
S MID LAKE BUOY  1750   61 60  190/  2/  2 1023.3S   0
KENOSHA   LAKESH 1800   64     140/ 11/ 12   N/A
$$

TC  - TEMPERATURE IN CELSIUS
VSB - VISIBILITY IN STATUTE MILES
WCI - WIND CHILL INDEX
HX  - HEAT INDEX




USA.gov is the U.S. government's official web portal to all federal, state and local government web resources and services.